Voltar ao catálogo

SYNCOM 3

AtivoComunicaçõesGEO
NORAD 858·PAYLOAD·🇺🇸 United States

Lançado Aug 19, 1964 de Cape Canaveral Space Force Station

Loading…

TLE

AtualizadoSource: Space-Track

Época: Sep 14, 2026, 09:13 UTC

1 00858U 64047A   26257.38444517 -.00000371  00000-0  00000-0 0  9992
2 00858   7.1783  63.5238 0004557 160.1567  25.1373  1.00364796 54368

Acompanhe SYNCOM 3 em tempo real com AllMySat

Download on the App Store